Satellite: ORSTED
Catalog number: 25635
Epoch time:      103062.89395431
Element set:     845 
Inclination:       96.4527 deg
RA of node:        45.9396 deg
Eccentricity:    0.0143997
Arg of perigee:   287.2647 deg
Mean anomaly:      71.2857 deg
Mean motion:   14.44863717 rev/day
Decay rate:    6.4500E-006 rev/day^2
Epoch rev:           21186
Checksum:              350

Satellite: SUNSAT
Catalog number: 25636
Epoch time:      103061.99097286
Element set:     791 
Inclination:       96.4551 deg
RA of node:        43.8836 deg
Eccentricity:    0.0148037
Arg of perigee:   296.7125 deg
Mean anomaly:      61.8982 deg
Mean motion:   14.42966131 rev/day
Decay rate:    3.1300E-006 rev/day^2
Epoch rev:           21160
Checksum:              317

Satellite: UOSAT 12
Catalog number: 25693
Epoch time:      103063.23282355
Element set:     757 
Inclination:       64.5616 deg
RA of node:       328.9639 deg
Eccentricity:    0.0021711
Arg of perigee:   315.3502 deg
Mean anomaly:      44.5850 deg
Mean motion:   14.76402242 rev/day
Decay rate:    1.6300E-006 rev/day^2
Epoch rev:           20827
Checksum:              289

Satellite: FENGYUN 1C
Catalog number: 25730
Epoch time:      103061.98525851
Element set:     790 
Inclination:       98.6338 deg
RA of node:        85.9190 deg
Eccentricity:    0.0014049
Arg of perigee:   330.8281 deg
Mean anomaly:      29.2105 deg
Mean motion:   14.11734260 rev/day
Decay rate:   -6.1999E-007 rev/day^2
Epoch rev:           19638
Checksum:              324

Satellite: ASTRA 1H
Catalog number: 25785
Epoch time:      103057.00000000
Element set:     373 
Inclination:        0.0122 deg
RA of node:       319.8851 deg
Eccentricity:    0.0002995
Arg of perigee:    65.1991 deg
Mean anomaly:     149.5614 deg
Mean motion:    1.00273184 rev/day
Decay rate:    1.0400E-006 rev/day^2
Epoch rev:            1357
Checksum:              244

Satellite: TERRA
Catalog number: 25994
Epoch time:      103063.25241547
Element set:     750 
Inclination:       98.1956 deg
RA of node:       139.2592 deg
Eccentricity:    0.0000658
Arg of perigee:    96.9608 deg
Mean anomaly:     263.1676 deg
Mean motion:   14.57145017 rev/day
Decay rate:    5.0399E-006 rev/day^2
Epoch rev:           17066
Checksum:              337

Satellite: JAWSAT
Catalog number: 26061
Epoch time:      103063.56609802
Element set:     779 
Inclination:      100.2029 deg
RA of node:       123.2289 deg
Eccentricity:    0.0034845
Arg of perigee:   239.4681 deg
Mean anomaly:     120.3055 deg
Mean motion:   14.37838207 rev/day
Decay rate:    3.7100E-006 rev/day^2
Epoch rev:           16254
Checksum:              286

Satellite: OPAL
Catalog number: 26063
Epoch time:      103063.21662048
Element set:     733 
Inclination:      100.2065 deg
RA of node:       120.2677 deg
Eccentricity:    0.0036707
Arg of perigee:   248.5404 deg
Mean anomaly:     111.1859 deg
Mean motion:   14.35485816 rev/day
Decay rate:    8.2999E-007 rev/day^2
Epoch rev:           16234
Checksum:              299

Satellite: ASUSAT
Catalog number: 26065
Epoch time:      103063.52172345
Element set:     747 
Inclination:      100.2096 deg
RA of node:       120.7843 deg
Eccentricity:    0.0036963
Arg of perigee:   248.3835 deg
Mean anomaly:     111.3406 deg
Mean motion:   14.35513979 rev/day
Decay rate:    1.0300E-006 rev/day^2
Epoch rev:           16238
Checksum:              282

Satellite: GOES 11
Catalog number: 26352
Epoch time:      103063.34049868
Element set:     50 
Inclination:        0.1748 deg
RA of node:       102.1606 deg
Eccentricity:    0.0003194
Arg of perigee:   208.7737 deg
Mean anomaly:     219.6232 deg
Mean motion:    1.00266621 rev/day
Decay rate:   -4.3000E-007 rev/day^2
Epoch rev:            1037
Checksum:              250

Satellite: EUTELSAT W4
Catalog number: 26369
Epoch time:      103062.58668808
Element set:     356 
Inclination:        0.0433 deg
RA of node:       355.6995 deg
Eccentricity:    0.0002598
Arg of perigee:   346.7563 deg
Mean anomaly:      65.7433 deg
Mean motion:    1.00271513 rev/day
Decay rate:    1.4199E-006 rev/day^2
Epoch rev:            1018
Checksum:              311

Satellite: FENGYUN 2B
Catalog number: 26382
Epoch time:      103062.22690641
Element set:     804 
Inclination:        0.5390 deg
RA of node:       287.9954 deg
Eccentricity:    0.0002204
Arg of perigee:   190.6933 deg
Mean anomaly:     228.0471 deg
Mean motion:    1.00270798 rev/day
Decay rate:   -3.4400E-006 rev/day^2
Epoch rev:             983
Checksum:              281

Satellite: EUTELSAT W1
Catalog number: 26487
Epoch time:      103062.03640626
Element set:     362 
Inclination:        0.0266 deg
RA of node:       289.8625 deg
Eccentricity:    0.0004066
Arg of perigee:    60.9887 deg
Mean anomaly:     192.5708 deg
Mean motion:    1.00273438 rev/day
Decay rate:    5.2000E-007 rev/day^2
Epoch rev:             914
Checksum:              283

Satellite: ASTRA 2B
Catalog number: 26494
Epoch time:      103057.00000000
Element set:     256 
Inclination:        0.0178 deg
RA of node:       354.5658 deg
Eccentricity:    0.0005000
Arg of perigee:   302.8402 deg
Mean anomaly:     246.1704 deg
Mean motion:    1.00276704 rev/day
Decay rate:    1.3400E-006 rev/day^2
Epoch rev:             899
Checksum:              231

Satellite: NOAA 16
Catalog number: 26536
Epoch time:      103062.62113241
Element set:     230 
Inclination:       98.9032 deg
RA of node:        10.8077 deg
Eccentricity:    0.0009844
Arg of perigee:   269.7615 deg
Mean anomaly:      90.2403 deg
Mean motion:   14.11912484 rev/day
Decay rate:    4.3899E-006 rev/day^2
Epoch rev:           12599
Checksum:              308

Satellite: SAUDISAT 1A
Catalog number: 26545
Epoch time:      103062.25777681
Element set:     419 
Inclination:       64.5605 deg
RA of node:       352.9224 deg
Eccentricity:    0.0051308
Arg of perigee:   236.7330 deg
Mean anomaly:     122.8842 deg
Mean motion:   14.79010653 rev/day
Decay rate:    1.1250E-005 rev/day^2
Epoch rev:           13109
Checksum:              284

Satellite: UNISAT
Catalog number: 26547
Epoch time:      103061.89961433
Element set:     438 
Inclination:       64.5590 deg
RA of node:       356.2083 deg
Eccentricity:    0.0058388
Arg of perigee:   238.7805 deg
Mean anomaly:     120.7577 deg
Mean motion:   14.79792935 rev/day
Decay rate:    1.7090E-005 rev/day^2
Epoch rev:           13101
Checksum:              334

Satellite: TIUNGSAT 1
Catalog number: 26548
Epoch time:      103061.78806828
Element set:     422 
Inclination:       64.5592 deg
RA of node:       347.1194 deg
Eccentricity:    0.0044627
Arg of perigee:   236.0573 deg
Mean anomaly:     123.6315 deg
Mean motion:   14.81307163 rev/day
Decay rate:    1.5040E-005 rev/day^2
Epoch rev:           13117
Checksum:              291

Satellite: SAUDISAT 1B
Catalog number: 26549
Epoch time:      103062.30298514
Element set:     706 
Inclination:       64.5526 deg
RA of node:       356.9627 deg
Eccentricity:    0.0055697
Arg of perigee:   236.7299 deg
Mean anomaly:     122.8464 deg
Mean motion:   14.77944848 rev/day
Decay rate:    7.7799E-006 rev/day^2
Epoch rev:           13102
Checksum:              460

Satellite: AMSAT OSCAR 40
Catalog number: 26609
Epoch time:      103062.14261750
Element set:     313 
Inclination:        8.2009 deg
RA of node:        61.8922 deg
Eccentricity:    0.7947545
Arg of perigee:   149.3793 deg
Mean anomaly:     302.8222 deg
Mean motion:    1.25596061 rev/day
Decay rate:   -3.1399E-006 rev/day^2
Epoch rev:            1073
Checksum:              296

Satellite: GOES 12
Catalog number: 26871
Epoch time:      103063.15934101
Element set:     849 
Inclination:        0.2936 deg
RA of node:       276.4641 deg
Eccentricity:    0.0002255
Arg of perigee:    24.5193 deg
Mean anomaly:     187.7453 deg
Mean motion:    1.00359856 rev/day
Decay rate:   -2.0200E-006 rev/day^2
Epoch rev:             597
Checksum:              285

Satellite: PCSAT
Catalog number: 26931
Epoch time:      103062.54224013
Element set:     415 
Inclination:       67.0469 deg
RA of node:       222.2134 deg
Eccentricity:    0.0005131
Arg of perigee:   268.9508 deg
Mean anomaly:      91.1001 deg
Mean motion:   14.29120477 rev/day
Decay rate:    8.6000E-007 rev/day^2
Epoch rev:            7420
Checksum:              252

Satellite: SAPPHIRE
Catalog number: 26932
Epoch time:      103062.86854975
Element set:     410 
Inclination:       67.0531 deg
RA of node:       221.0746 deg
Eccentricity:    0.0004447
Arg of perigee:   246.7607 deg
Mean anomaly:     113.3026 deg
Mean motion:   14.29298462 rev/day
Decay rate:    8.6000E-007 rev/day^2
Epoch rev:            7427
Checksum:              298

Satellite: ENVISAT
Catalog number: 27386
Epoch time:      103063.23767443
Element set:     965 
Inclination:       98.5512 deg
RA of node:       131.5906 deg
Eccentricity:    0.0001020
Arg of perigee:    88.6803 deg
Mean anomaly:     271.4497 deg
Mean motion:   14.32250146 rev/day
Decay rate:    6.8999E-007 rev/day^2
Epoch rev:            5270
Checksum:              318

Satellite: IDEFIX/ARIANE 
Catalog number: 27422
Epoch time:      103063.19584516
Element set:     246 
Inclination:       98.6936 deg
RA of node:       142.3333 deg
Eccentricity:    0.0013336
Arg of perigee:   108.7450 deg
Mean anomaly:     251.5193 deg
Mean motion:   14.27975479 rev/day
Decay rate:    1.4099E-006 rev/day^2
Epoch rev:            4340
Checksum:              316

